Simultaneous Nadir Overpasses (SNOs) Predictions

Prediction of SNOs between GOES-16 and METOP-A Satellite Orbit:

Table of predicted SNOs for the next 14.0 days since TLE Epoch: 12/26/2020
Index Date Time (GOES-16) GOES-16 Lat,Lon METOP-A Lat,Lon Distance(km) Time Diff (sec)
1 12/26/2020 13:12:39 -0.02, -75.24 -0.74, -71.94 376.15 80
2 12/28/2020 01:31:40 0.01, -75.22 -0.27, -76.58 153.92 80
3 12/29/2020 01:08:21 0.01, -75.23 0.83, -71.60 414.52 80
4 12/30/2020 13:27:12 -0.00, -75.29 0.22, -76.19 103.26 80
5 12/31/2020 13:09:13 0.01, -75.30 -0.88, -71.21 465.48 80
6 01/02/2021 01:28:14 -0.02, -75.29 -0.12, -75.85 63.84 80
7 01/04/2021 13:23:46 0.03, -75.37 0.07, -75.47 11.91 80
8 01/07/2021 01:22:08 -0.03, -75.39 0.04, -75.13 29.16 80
9 01/08/2021 13:41:00 0.03, -75.45 0.95, -79.74 487.43 80
